SCP
3 2 4 2 2 2 2 2 1 1 1 1 0 0 0 0 0 0 0 0 0 0
3 3 3 2 2 2 1 1 0 0 0 0 0 0 0 0 0 0 0 0 0 0
4 2 2 2 2 1 1 0 0 0 0 0 0 0 0 0 0 0 0 0 0 0
2 2 1 1 1 0 0 0 0 0 0 0 0 0 0 0 0 0 0 0 0 0
1 0 0 0 0 0 0 0 0 0 0 0 0 0 0 0 0 0 0 0 0 0
0 0 0 0 0 0 0 0 0 0 0 0 0 0 0 0 0 0 0 0 0 0
0 0 0 0 0 0 0 0 0 0 0 0 0 0 0 0 0 0 0 0 0 0
0 0 0 0 0 0 0 0 0 0 0 0 0 0 0 0 0 0 0 0 0 0
0 0 0 0 0 0 0 0 0 0 0 0 0 0 0 0 0 0 0 0 0 0
0 0 0 0 0 0 0 0 0 0 0 0 0 0 0 0 0 0 0 0 0 0
0 0 0 0 0 0 0 0 0 0 0 0 0 0 0 0 0 0 0 0 0 0
0 0 0 0 0 0 0 0 0 0 0 0 0 0 0 0 0 0 0 0 0 0
0 0 0 0 0 0 0 0 0 0 0 0 0 0 0 0 0 0 0 0 0 0
0 0 0 0 0 0 0 0 0 0 0 0 0 0 0 0 0 0 0 0 0 0
Wind_Speed_500mb
66 71 68 60 50 45 46 48 50 45 39 32 26 23 17 16 14 17 20 27 30 34
71 72 66 61 49 46 48 40 38 37 31 29 24 20 19 20 23 27 20 20 25 25
68 68 62 54 48 44 40 43 36 34 32 29 25 26 25 21 16 13 13 16 17 20
70 62 55 51 51 43 42 39 38 34 32 28 24 18 13 9 8 14 16 19 22 25
67 61 58 57 51 48 46 44 41 35 30 26 20 15 11 12 17 20 22 25 26 29
67 63 61 57 57 52 50 45 39 31 24 18 14 12 15 18 20 23 28 33 35 35
69 71 62 60 62 55 50 44 34 26 22 17 14 18 20 23 27 33 36 35 27 17
77 72 66 67 60 53 44 36 29 26 18 16 15 17 21 26 26 22 16 8 4 8
81 71 66 59 51 45 37 30 24 17 14 13 13 17 18 17 14 8 5 4 2 8
74 68 60 53 44 35 29 22 16 11 4 6 10 12 16 16 12 9 8 3 3 10
68 61 51 41 34 28 22 16 11 7 5 8 13 16 14 11 10 9 8 6 4 8
61 52 41 33 27 23 17 16 13 12 11 11 11 11 7 6 8 6 4 4 7 13
45 37 31 25 23 20 15 14 15 16 14 13 10 8 5 6 6 5 3 6 8 14
33 29 25 23 21 19 19 21 20 16 17 13 12 10 9 8 8 6 3 7 12 7
Wind_Direction_500mb
214 216 215 218 216 207 219 222 227 238 237 237 232 231 239 251 249 266 279 282 288 291
207 210 212 212 214 220 218 209 212 217 221 215 217 223 237 236 246 259 258 263 271 278
201 205 210 211 217 204 197 204 199 207 208 210 217 243 250 244 246 262 261 263 276 281
198 195 197 203 199 193 195 198 199 198 199 211 218 204 204 210 244 263 271 285 286 285
189 187 189 186 186 186 185 185 187 191 192 190 187 198 226 247 250 265 277 283 286 291
182 179 177 186 177 181 180 176 176 182 187 189 206 242 258 272 280 291 294 294 298 296
173 170 178 178 170 171 174 176 175 182 201 207 234 256 273 287 299 302 302 305 303 297
164 165 170 163 166 171 173 172 181 196 206 240 257 278 295 307 315 323 344 11 343 1
156 159 161 166 165 169 168 174 187 205 238 265 302 328 337 350 5 26 77 98 304 321
154 155 157 156 161 166 174 182 198 216 251 333 6 24 30 49 44 61 65 147 251 331
151 150 151 156 165 172 174 176 168 140 79 54 69 68 66 53 27 24 48 61 29 333
146 148 153 160 163 158 156 147 131 107 100 93 91 89 72 14 352 355 9 17 354 347
141 148 153 153 151 145 142 135 121 123 119 110 93 88 56 30 14 350 326 326 346 343
140 144 147 149 150 151 151 145 136 133 120 107 91 76 59 38 13 16 327 36 47 55
Wind_Speed_850mb
66 71 68 60 50 45 46 48 50 45 39 32 26 23 17 16 14 17 20 27 30 34
71 72 66 61 49 46 48 40 38 37 31 29 24 20 19 20 23 27 20 20 25 25
68 68 62 54 48 44 40 43 36 34 32 29 25 26 25 21 16 13 13 16 17 20
70 62 55 51 51 43 42 39 38 34 32 28 24 18 13 9 8 14 16 19 22 25
67 61 58 57 51 48 46 44 41 35 30 26 20 15 11 12 17 20 22 25 26 29
67 63 61 57 57 52 50 45 39 31 24 18 14 12 15 18 20 23 28 33 35 35
69 71 62 60 62 55 50 44 34 26 22 17 14 18 20 23 27 33 36 35 27 17
77 72 66 67 60 53 44 36 29 26 18 16 15 17 21 26 26 22 16 8 4 8
81 71 66 59 51 45 37 30 24 17 14 13 13 17 18 17 14 8 5 4 2 8
74 68 60 53 44 35 29 22 16 11 4 6 10 12 16 16 12 9 8 3 3 10
68 61 51 41 34 28 22 16 11 7 5 8 13 16 14 11 10 9 8 6 4 8
61 52 41 33 27 23 17 16 13 12 11 11 11 11 7 6 8 6 4 4 7 13
45 37 31 25 23 20 15 14 15 16 14 13 10 8 5 6 6 5 3 6 8 14
33 29 25 23 21 19 19 21 20 16 17 13 12 10 9 8 8 6 3 7 12 7
Wind_Direction_850mb
214 216 215 218 216 207 219 222 227 238 237 237 232 231 239 251 249 266 279 282 288 291
207 210 212 212 214 220 218 209 212 217 221 215 217 223 237 236 246 259 258 263 271 278
201 205 210 211 217 204 197 204 199 207 208 210 217 243 250 244 246 262 261 263 276 281
198 195 197 203 199 193 195 198 199 198 199 211 218 204 204 210 244 263 271 285 286 285
189 187 189 186 186 186 185 185 187 191 192 190 187 198 226 247 250 265 277 283 286 291
182 179 177 186 177 181 180 176 176 182 187 189 206 242 258 272 280 291 294 294 298 296
173 170 178 178 170 171 174 176 175 182 201 207 234 256 273 287 299 302 302 305 303 297
164 165 170 163 166 171 173 172 181 196 206 240 257 278 295 307 315 323 344 11 343 1
156 159 161 166 165 169 168 174 187 205 238 265 302 328 337 350 5 26 77 98 304 321
154 155 157 156 161 166 174 182 198 216 251 333 6 24 30 49 44 61 65 147 251 331
151 150 151 156 165 172 174 176 168 140 79 54 69 68 66 53 27 24 48 61 29 333
146 148 153 160 163 158 156 147 131 107 100 93 91 89 72 14 352 355 9 17 354 347
141 148 153 153 151 145 142 135 121 123 119 110 93 88 56 30 14 350 326 326 346 343
140 144 147 149 150 151 151 145 136 133 120 107 91 76 59 38 13 16 327 36 47 55